Skip Page Navigation
NASA JPL Caltech
NASA Logo - Jet Propulsion Laboratory + View the NASA Portal
+ Center for Near-Earth Object Studies
JPL Home Earth Solar System Stars & Galaxies Technology
JPL Solar System Dynamics
BODIES ORBITS EPHEMERIDES TOOLS PHYSICAL DATA DISCOVERY FAQ SITE MAP
JPL Small-Body Database Browser
Search: [ help ]  
300044 (2006 UU137)
Classification: Main-belt Asteroid          SPK-ID: 2300044
Ephemeris | Orbit Diagram | Orbital Elements | Mission Design | Physical Parameters | Discovery Circumstances | Close-Approach Data ]

[ show orbit diagram ]
Orbital Elements at Epoch 2459000.5 (2020-May-31.0) TDB
Reference: JPL 14 (heliocentric ecliptic J2000)
 Element Value Uncertainty (1-sigma)   Units 
e .152826280857905 5.9036e-08  
a 3.127175459577624 3.2791e-08 au
q 2.649260864500266 1.8666e-07 au
i 5.337330651411301 6.9345e-06 deg
node 6.019241511383813 5.8605e-05 deg
peri 33.36596466327574 6.1605e-05 deg
M 170.9395099708093 2.1339e-05 deg
tp 2458041.393675674183
(2017-Oct-14.89367567)
0.00011191 TDB
period 2019.885729263269
5.53
3.177e-05
8.698e-08
d
yr
n .1782279040761905 2.8033e-09 deg/d
Q 3.605090054654982 3.7802e-08 au
  Orbit Determination Parameters
   # obs. used (total)      282  
   data-arc span      7148 days (19.57 yr)  
   first obs. used      2000-10-01  
   last obs. used      2020-04-27  
   planetary ephem.      DE431  
   SB-pert. ephem.      SB431-N16  
   condition code      0  
   norm. resid. RMS      .61569  
   source      ORB  
   producer      Otto Matic  
   solution date      2020-May-21 19:31:35  

Additional Information
 Earth MOID = 1.65886 au 
 Jupiter MOID = 1.8473 au 
 T_jup = 3.190 
[ show covariance matrix ]

Ephemeris | Orbit Diagram | Orbital Elements | Mission Design | Physical Parameters | Discovery Circumstances | Close-Approach Data ]

Physical Parameter Table
Parameter Symbol Value Units Sigma Reference Notes
absolute magnitude H 15.7   n/a MPO248642  

300044 (2006 UU137)          Discovered 2006-Oct-19 by Mt. Lemmon Survey at Mount Lemmon
Reference: 20111012/Numbers.arcLast Updated: 2011-10-13

[ show close-approach data ]
Alternate Designations
 2006 UU137 = 2000 TM3 
Ephemeris | Orbit Diagram | Orbital Elements | Mission Design | Physical Parameters | Discovery Circumstances | Close-Approach Data ]
ABOUT SSD CREDITS/AWARDS PRIVACY/COPYRIGHT GLOSSARY LINKS
FirstGov 2020-Jul-09 21:58 UT
(server date/time)  
NASA Home Page
Site Manager:   Ryan S. Park
Webmaster  Alan B. Chamberlin